This is the latest recevied weather packets stored in our database for station/object HB9TJM-8. If no packets are shown the sender has not sent any weather packets the latest 1 day(s).
| Time | Temp. | Humidity | Pressure | Rain* | Wind** | Luminosity | Snow |
|---|---|---|---|---|---|---|---|
| 1777984661 | 10.56° C | 92% | 1010.6 hPa | 1.02 mm | 0.89 m/s, 141° | 233 W/m² | - |
| 1777984353 | 10.56° C | 93% | 1010.6 hPa | 1.52 mm | 1.79 m/s, 170° | 309 W/m² | - |
| 1777984046 | 10.56° C | 94% | 1010.8 hPa | 1.78 mm | 0.45 m/s, 198° | 294 W/m² | - |
| 1777983738 | 10° C | 93% | 1010.9 hPa | 2.29 mm | 1.34 m/s, 183° | 411 W/m² | - |
| 1777983123 | 10° C | 93% | 1010.7 hPa | 2.54 mm | 1.34 m/s, 120° | 258 W/m² | - |
| 1777982509 | 9.44° C | 95% | 1010.5 hPa | 2.79 mm | 1.79 m/s, 198° | 154 W/m² | - |
| 1777981894 | 9.44° C | 95% | 1010.8 hPa | 2.54 mm | 1.34 m/s, 172° | 149 W/m² | - |
| 1777981587 | 9.44° C | 95% | 1010.8 hPa | 2.54 mm | 0.89 m/s, 163° | 129 W/m² | - |
| 1777981280 | 9.44° C | 95% | 1011 hPa | 2.29 mm | 0.89 m/s, 206° | 111 W/m² | - |
| 1777980665 | 9.44° C | 94% | 1010.6 hPa | 1.52 mm | 0.45 m/s, 217° | 85 W/m² | - |
| 1777980357 | 9.44° C | 94% | 1010.6 hPa | 1.27 mm | 1.34 m/s, 192° | 82 W/m² | - |
| 1777980049 | 9.44° C | 94% | 1011.1 hPa | 0.76 mm | 1.34 m/s, 225° | 73 W/m² | - |
| 1777979741 | 10° C | 93% | 1010.9 hPa | 0.76 mm | 4.47 m/s, 236° | 128 W/m² | - |
| 1777979433 | 10° C | 92% | 1011.2 hPa | 0.51 mm | 4.92 m/s, 198° | 148 W/m² | - |
| 1777978820 | 10° C | 91% | 1010.7 hPa | 0.25 mm | 2.68 m/s, 227° | 142 W/m² | - |
| 1777978511 | 10.56° C | 91% | 1010.8 hPa | 0.25 mm | 2.24 m/s, 213° | 179 W/m² | - |
| 1777978204 | 10.56° C | 88% | 1010.7 hPa | 0.25 mm | 2.68 m/s, 205° | 230 W/m² | - |
| 1777977896 | 10.56° C | 88% | 1010.7 hPa | 0.25 mm | 4.02 m/s, 221° | 223 W/m² | - |
| 1777976974 | 10.56° C | 92% | 1010.6 hPa | 0 mm | 1.79 m/s, 190° | 85 W/m² | - |
| 1777976666 | 10.56° C | 92% | 1010.8 hPa | 0 mm | 1.79 m/s, 171° | 128 W/m² | - |
| 1777976359 | 10.56° C | 91% | 1010.7 hPa | 0 mm | 1.79 m/s, 143° | 107 W/m² | - |
| 1777975744 | 11.11° C | 89% | 1010.6 hPa | 0 mm | 1.34 m/s, 174° | 251 W/m² | - |
| 1777975437 | 11.11° C | 89% | 1010.6 hPa | 0 mm | 2.24 m/s, 138° | 238 W/m² | - |
| 1777975129 | 11.11° C | 88% | 1010.2 hPa | 0 mm | 3.13 m/s, 206° | 936 W/m² | - |
| 1777974821 | 11.11° C | 88% | 1010.6 hPa | 0 mm | 1.34 m/s, 172° | 544 W/m² | - |
* Rain latest hour (hover to see other rain measurements)
** Current wind speed in m/s (hover to see current wind gust speed)